WZZ2498 LPMA-LHBP

Flight info

Callsign WZZ2498
Flight time N/A
Altitude 32000
Route DEGUN DCT GALPA DCT NARTA DCT UREDI DCT DIPOL DCT RBO DCT PINAR DCT SEGRE DCT BRITO DCT PISUS DCT PONEN DCT SEROX DCT VILAR DCT KARES DCT BISES DCT BCN DCT SALON DCT AGENA DCT BODEQ DCT LUMAS DCT NOSTA DCT NOPMU DCT OTMUV DCT KALMO DCT BARPI DCT OTFOX DCT KOPRY DCT ULZAK
Aircraft A21N/M-SDE1E2E3FGIJ1J4RWXY/LB1

Departure

Time 2026-05-04 08:25
Airport Cristiano Ronaldo International Airport (LPMA)

Arrival

Time N/A
Airport Budapest Liszt Ferenc International Airport (LHBP)
Time Latitude Longitude Altitude Speed Heading
2026-05-04 08:04 32.69440 -16.77559 182 ft 0 kts 138°
2026-05-04 08:16 32.69503 -16.77591 182 ft 5 kts 209°
2026-05-04 08:16 32.69512 -16.77583 182 ft 0 kts 226°
2026-05-04 08:19 32.69460 -16.77647 182 ft 6 kts 226°
2026-05-04 08:19 32.69431 -16.77684 182 ft 7 kts 227°
2026-05-04 08:20 32.69396 -16.77727 182 ft 8 kts 226°
2026-05-04 08:20 32.69356 -16.77776 182 ft 9 kts 226°
2026-05-04 08:20 32.69314 -16.77829 182 ft 6 kts 226°
2026-05-04 08:20 32.69298 -16.77848 182 ft 3 kts 231°
2026-05-04 08:21 32.69290 -16.77870 182 ft 0 kts 266°
2026-05-04 08:21 32.69289 -16.77892 182 ft 5 kts 269°
2026-05-04 08:22 32.69288 -16.77953 182 ft 10 kts 268°
2026-05-04 08:22 32.69267 -16.78047 182 ft 14 kts 236°
2026-05-04 08:24 32.68958 -16.78417 174 ft 24 kts 44°
2026-05-04 08:24 32.69260 -16.78064 182 ft 97 kts 44°
2026-05-04 08:24 32.69908 -16.77308 182 ft 161 kts 44°
2026-05-04 08:24 32.70758 -16.76306 585 ft 171 kts 46°
2026-05-04 08:25 32.71503 -16.75220 1222 ft 172 kts 66°
2026-05-04 08:25 32.71639 -16.73751 1514 ft 193 kts 103°
2026-05-04 08:25 32.71136 -16.72215 1922 ft 211 kts 115°
2026-05-04 08:25 32.70507 -16.70569 2378 ft 229 kts 114°
2026-05-04 08:26 32.69837 -16.68739 2740 ft 252 kts 114°
2026-05-04 08:27 32.65831 -16.54005 7912 ft 287 kts 69°
2026-05-04 08:28 32.66883 -16.52002 8569 ft 289 kts 45°
2026-05-04 08:28 32.68347 -16.50347 9271 ft 292 kts 40°
2026-05-04 08:28 32.69863 -16.48723 9973 ft 296 kts 41°
2026-05-04 08:28 32.71403 -16.47043 10439 ft 308 kts 41°
2026-05-04 08:29 32.73008 -16.45255 10731 ft 326 kts 42°
2026-05-04 08:29 32.74669 -16.43383 11059 ft 340 kts 42°
2026-05-04 08:29 32.76389 -16.41426 11632 ft 346 kts 42°
2026-05-04 08:31 32.89016 -16.27021 15953 ft 373 kts 41°
2026-05-04 08:33 33.02477 -16.11489 19672 ft 399 kts 41°
2026-05-04 08:33 33.04484 -16.09188 20134 ft 402 kts 41°
2026-05-04 08:35 33.18928 -15.92494 23275 ft 426 kts 40°
2026-05-04 08:35 33.21069 -15.90026 23711 ft 430 kts 40°
2026-05-04 08:35 33.23222 -15.87532 24087 ft 433 kts 40°
2026-05-04 08:35 33.25393 -15.85012 24461 ft 436 kts 40°
2026-05-04 08:37 33.38596 -15.69612 26549 ft 450 kts 41°
2026-05-04 08:37 33.40848 -15.66989 26872 ft 452 kts 40°
2026-05-04 08:37 33.43229 -15.64530 27188 ft 452 kts 34°
2026-05-04 08:38 33.45679 -15.62232 27506 ft 455 kts 33°
2026-05-04 08:38 33.48186 -15.59913 27836 ft 457 kts 33°
2026-05-04 08:38 33.50711 -15.57575 28121 ft 460 kts 33°
2026-05-04 08:40 33.68631 -15.40733 30047 ft 476 kts 33°
2026-05-04 08:40 33.71230 -15.38251 30286 ft 478 kts 33°
2026-05-04 08:40 33.73854 -15.35784 30511 ft 480 kts 32°
2026-05-04 08:41 33.76497 -15.33327 30795 ft 480 kts 32°
2026-05-04 08:41 33.79128 -15.30859 31124 ft 480 kts 32°
2026-05-04 08:41 33.81756 -15.28383 31417 ft 480 kts 32°
2026-05-04 08:41 33.84379 -15.25908 31714 ft 479 kts 32°
2026-05-04 08:42 33.86993 -15.23439 32006 ft 478 kts 32°
2026-05-04 08:42 33.89574 -15.20995 32175 ft 476 kts 32°
2026-05-04 08:42 33.92173 -15.18534 32193 ft 475 kts 32°
2026-05-04 08:43 33.97356 -15.13612 32167 ft 474 kts 32°
2026-05-04 08:43 34.02541 -15.08683 32166 ft 475 kts 32°
2026-05-04 08:44 34.07728 -15.03753 32175 ft 475 kts 32°
2026-05-04 08:46 34.28463 -14.83940 32169 ft 477 kts 32°
2026-05-04 08:46 34.33619 -14.78995 32167 ft 476 kts 32°
2026-05-04 08:47 34.38797 -14.74010 32181 ft 476 kts 33°
2026-05-04 08:47 34.43546 -14.68322 32177 ft 482 kts 41°
2026-05-04 08:48 34.48160 -14.62432 32181 ft 482 kts 41°
2026-05-04 08:48 34.52742 -14.56582 32193 ft 482 kts 41°
2026-05-04 08:49 34.57370 -14.50684 32179 ft 483 kts 41°
2026-05-04 08:50 34.73489 -14.30036 32184 ft 481 kts 41°
2026-05-04 08:51 34.78081 -14.24107 32183 ft 482 kts 41°
2026-05-04 08:51 34.82684 -14.18182 32193 ft 482 kts 41°
2026-05-04 08:52 34.87290 -14.12249 32196 ft 483 kts 41°
2026-05-04 08:52 34.91863 -14.06327 32186 ft 483 kts 41°
2026-05-04 08:54 35.10204 -13.82525 32194 ft 483 kts 41°
2026-05-04 08:55 35.14799 -13.76532 32196 ft 483 kts 41°
2026-05-04 08:55 35.19394 -13.70531 32197 ft 483 kts 41°
2026-05-04 08:57 35.35426 -13.49511 32862 ft 484 kts 41°
2026-05-04 09:01 35.67645 -13.06827 34201 ft 491 kts 40°
2026-05-04 09:01 35.72251 -13.00698 34194 ft 491 kts 40°
2026-05-04 09:02 35.76877 -12.94515 34194 ft 491 kts 40°
2026-05-04 09:02 35.81497 -12.88312 34222 ft 492 kts 41°
2026-05-04 09:03 35.86134 -12.82104 34204 ft 492 kts 40°
2026-05-04 09:03 35.90738 -12.75928 34197 ft 493 kts 41°
2026-05-04 09:04 35.95368 -12.69691 34187 ft 493 kts 41°
2026-05-04 09:04 36.00005 -12.63436 34193 ft 493 kts 41°
2026-05-04 09:05 36.04627 -12.57169 34185 ft 493 kts 41°
2026-05-04 09:05 36.09080 -12.50752 34237 ft 496 kts 44°
2026-05-04 09:06 36.13441 -12.44260 34199 ft 489 kts 45°
2026-05-04 09:08 36.30853 -12.18253 34186 ft 492 kts 44°
2026-05-04 09:08 36.35239 -12.11746 34186 ft 492 kts 44°
2026-05-04 09:09 36.39596 -12.05220 34222 ft 487 kts 45°
2026-05-04 09:09 36.43891 -11.98752 34189 ft 485 kts 45°
2026-05-04 09:10 36.48162 -11.92338 34187 ft 485 kts 45°
2026-05-04 09:10 36.52453 -11.85873 34185 ft 485 kts 45°
2026-05-04 09:11 36.56743 -11.79387 34182 ft 485 kts 45°
2026-05-04 09:11 36.61028 -11.72901 34180 ft 485 kts 45°
2026-05-04 09:12 36.65279 -11.66452 34180 ft 485 kts 46°
2026-05-04 09:14 36.82376 -11.40384 34529 ft 486 kts 46°
2026-05-04 09:14 36.84475 -11.37143 34683 ft 486 kts 46°
2026-05-04 09:14 36.86606 -11.33864 34826 ft 486 kts 46°
2026-05-04 09:14 36.88746 -11.30597 34981 ft 486 kts 46°
2026-05-04 09:15 36.90888 -11.27319 35081 ft 487 kts 46°
2026-05-04 09:15 36.93028 -11.24030 35192 ft 488 kts 46°
2026-05-04 09:15 36.95172 -11.20735 35330 ft 489 kts 46°
2026-05-04 09:15 36.97315 -11.17434 35458 ft 489 kts 46°
2026-05-04 09:17 37.14451 -10.90920 36202 ft 492 kts 46°
2026-05-04 09:18 37.18754 -10.84241 36171 ft 492 kts 46°
2026-05-04 09:18 37.23019 -10.77592 36189 ft 492 kts 46°
2026-05-04 09:19 37.27290 -10.70929 36168 ft 489 kts 46°
2026-05-04 09:19 37.31550 -10.64263 36166 ft 489 kts 47°
2026-05-04 09:20 37.35802 -10.57594 36165 ft 489 kts 47°
2026-05-04 09:20 37.40059 -10.50903 36168 ft 491 kts 47°
2026-05-04 09:21 37.44282 -10.44237 36158 ft 491 kts 47°
2026-05-04 09:21 37.48549 -10.37530 36160 ft 490 kts 47°
2026-05-04 09:22 37.52803 -10.30821 36174 ft 489 kts 47°
2026-05-04 09:22 37.57039 -10.24108 36156 ft 489 kts 47°
2026-05-04 09:23 37.61238 -10.17427 36158 ft 491 kts 47°
2026-05-04 09:23 37.65465 -10.10669 36154 ft 491 kts 47°
2026-05-04 09:25 37.82371 -9.83681 36156 ft 489 kts 47°
2026-05-04 09:26 37.86588 -9.76884 36148 ft 492 kts 47°
2026-05-04 09:26 37.90810 -9.70073 36145 ft 492 kts 47°
2026-05-04 09:27 37.95041 -9.63267 36144 ft 492 kts 47°
2026-05-04 09:27 37.99230 -9.56490 36146 ft 492 kts 47°
2026-05-04 09:28 38.03460 -9.49675 36143 ft 492 kts 47°
2026-05-04 09:28 38.07660 -9.42825 36148 ft 493 kts 48°
2026-05-04 09:29 38.11872 -9.35937 36144 ft 493 kts 48°
2026-05-04 09:29 38.16077 -9.29061 36141 ft 493 kts 48°
2026-05-04 09:30 38.20256 -9.22222 36138 ft 493 kts 47°
2026-05-04 09:30 38.24493 -9.15373 36140 ft 493 kts 48°
2026-05-04 09:31 38.28700 -9.08488 36147 ft 493 kts 48°
2026-05-04 09:31 38.32901 -9.01547 36155 ft 496 kts 48°
2026-05-04 09:32 38.37074 -8.94630 36130 ft 495 kts 48°
2026-05-04 09:34 38.53874 -8.66772 36129 ft 498 kts 48°
2026-05-04 09:34 38.58055 -8.59789 36164 ft 498 kts 48°
2026-05-04 09:35 38.62274 -8.52764 36135 ft 498 kts 48°
2026-05-04 09:35 38.66480 -8.45735 36125 ft 498 kts 48°
2026-05-04 09:37 38.83261 -8.17492 36116 ft 500 kts 48°
2026-05-04 09:38 38.87468 -8.10386 36123 ft 500 kts 49°